LCU Chap Invitational Date: 9/15/18  Venue: Lubbock Christian - Lubbock, TX
Events
Men's Events Women's Events
Boys 3 Mile Run CC High School Girls 2 Mile Run CC Junior High
Boys 2 Mile Run CC Junior High Girls 2 Mile Run CC Hgh School
Boys 3 Mile Run CC High School Team Scores
Rank Team name Total Time Avg. Time Score 1 2 3 4 5 6 7
1 Sundown 2:48:07 18:40 79 1 5 16 27 30 37 44
2 Idalou 1:50:40 18:26 99 8 12 13 15 51 63
3 Southcrest Christian 6:00:52 21:13 117 4 20 25 29 39 43 56
4 Levelland 2:16:57 19:33 149 6 7 35 40 61 116 120
5 All Saints Episcopal - Lubbock 3:00:44 20:04 175 2 18 23 54 78 79 93
6 Crosbyton 2:39:32 19:56 195 9 21 31 64 70 73 88
7 Seminole 3:47:48 20:42 250 10 38 66 67 69 80 83
8 Abernathy 2:24:07 20:35 279 22 50 58 74 75 90 133
9 Slaton 2:01:55 20:19 301 26 34 48 94 99 126
10 Christ The King Cathedral 2:02:47 20:27 336 3 24 81 107 121 125
11 New Home 2:50:01 21:15 340 36 57 77 84 86 100 115
12 Brownfield 1:41:09 20:13 351 11 17 97 104 122
13 Denver City 5:41:24 22:45 352 14 68 87 91 92 95 102
14 Ackerly Sands 2:07:10 21:11 353 32 46 47 111 117 135
15 Lubbock Christian 4:48:58 22:13 367 19 76 82 89 101 113 114
16 Hale Center 1:42:30 20:30 371 33 41 65 105 127
17 Plains 2:10:57 21:49 383 28 42 85 96 132 136
18 Ropesville Ropes 2:57:06 22:08 386 52 60 62 103 109 129 130
19 Farwell 2:06:13 21:02 398 45 49 71 110 123 124
20 Tahoka 2:38:59 22:42 427 53 59 72 112 131 134 137
21 O'Donnell 2:56:48 22:06 485 55 98 106 108 118 119 128
Boys 3 Mile Run CC High School Individual Results
Place Name Year Team Avg. Mile Time Score
1 Quintanilla, Steven 0 Sundown 5:21.8 16:05.2 1
2 Taylor, Ret 0 All Saints Episcopal - Lubbock 5:29.0 16:26.9 2
3 Sandoval, Colby 0 Christ The King Cathedral 5:34.7 16:44.0 3
4 Spencer, Alex 0 Southcrest Christian 5:36.8 16:50.3 4
5 Torrez, Jon 0 Sundown 5:43.1 17:09.1 5
6 Manzanares, Jose 0 Levelland 5:45.0 17:14.8 6
7 Ornelas, Rodrigo 0 Levelland 5:45.3 17:15.7 7
8 Hinojosa, Christian 0 Idalou 5:50.5 17:31.5 8
9 Overstreet, Kenny 0 Clarendon MS 5:51.0 17:32.9
10 Quintero, Joe Luis 0 Crosbyton 5:52.8 17:38.2 9
11 Smith, Micah 0 Seminole 5:55.3 17:45.9 10
12 Girabaldo, Izaiah 0 Brownfield 5:56.1 17:48.3 11
13 Martinez, Gregory 0 Idalou 5:56.3 17:48.7 12
13 Ntazika, Freddy 0 Lubbock Estacado 5:56.3 17:48.7
15 Ponce-Rodelas, Luis 0 Idalou 5:56.3 17:48.8 13
16 Fleischman, Lincoln 0 Kingdom Prep. Acad. MS 5:57.7 17:53.0
17 Freeman, Jacob 0 Denver City 6:02.1 18:06.3 14
18 Yates, Brodey 0 Wellman-Union 6:02.7 18:08.0
19 Sage, Hagen 0 Idalou 6:03.0 18:08.8 15
20 Peralez, Elijah 0 Sundown 6:03.3 18:09.9 16
21 Rodriguez, Jeremiah 0 Brownfield 6:04.0 18:12.0 17
22 Clary, Gage 0 All Saints Episcopal - Lubbock 6:05.5 18:16.5 18
23 Rogers, Zack 0 Lubbock Christian 6:06.0 18:18.0 19
24 Kidder, Jacob 0 Southcrest Christian 6:07.8 18:23.2 20
25 Seeley, Tyler 0 New Deal 6:08.3 18:24.9
26 Morales, Dylan 0 Crosbyton 6:08.9 18:26.5 21
27 Rodriguez, Elijah 0 Abernathy 6:09.5 18:28.3 22
28 Bumstead, Ash 0 All Saints Episcopal - Lubbock 6:09.6 18:28.6 23
29 Butler, Mario 0 Christ The King Cathedral 6:10.1 18:30.1 24
30 Gaona, Kaleb 0 Southcrest Christian 6:10.4 18:31.1 25
31 Kinch, Ty 0 Slaton 6:11.3 18:33.8 26
32 Perez, Carlos 0 Sundown 6:11.7 18:35.1 27
33 Morales, Alex 0 Plains 6:12.6 18:37.7 28
34 Hunt, Stephen 0 Southcrest Christian 6:12.8 18:38.2 29
35 DeLaCerda, Nick 0 Sundown 6:14.8 18:44.2 30
36 Saavedra, Juan 0 Crosbyton 6:16.1 18:48.3 31
37 Webb, Riley 0 Ackerly Sands 6:16.2 18:48.4 32
38 Valdiva, Mathew 0 Hale Center 6:16.5 18:49.4 33
39 Gonzales, Aidan 0 Slaton 6:16.7 18:49.9 34
40 Alcazar, Brady 0 Levelland 6:18.5 18:55.5 35
41 Leclair, Kaleb 0 New Home 6:20.0 18:59.8 36
42 Richardson, Grayson 0 Sundown 6:20.3 19:00.8 37
43 Gomez, Jude 0 Seminole 6:20.8 19:02.2 38
44 Grant, Tanner 0 Southcrest Christian 6:22.5 19:07.5 39
45 Ramirez, Luis 0 Levelland 6:22.7 19:07.9 40
46 Rodriguez, Gabriel 0 Hale Center 6:23.4 19:10.0 41
47 Pinon, Ismael 0 Plains 6:23.9 19:11.6 42
48 Delgado, Landon 0 Southcrest Christian 6:23.9 19:11.7 43
49 Cruz, Tristan 0 Sundown 6:25.6 19:16.7 44
50 Rodriguez, Isaiah 0 Ralls 6:26.7 19:19.9
51 Mora, Jonathan 0 Farwell 6:27.6 19:22.6 45
52 Rich, Hunter 0 Ackerly Sands 6:27.6 19:22.8 46
53 Thomas, Will 0 Ackerly Sands 6:27.9 19:23.5 47
54 Cearley, Tannon 0 Slaton 6:28.0 19:24.0 48
55 Foster, Hyland 0 Farwell 6:28.3 19:24.7 49
56 Gomez, Ronnie 0 Abernathy 6:28.3 19:24.9 50
57 Olivas, Aidon 0 Sundown 6:28.9 19:26.7
58 Rodriguez, Mikah 0 Idalou 6:29.1 19:27.1 51
59 Flores, Evan 0 Ropesville Ropes 6:31.7 19:35.1 52
60 Calsoncit, John 0 Tahoka 6:32.3 19:36.7 53
61 Maldonado, Elisio 0 Lamesa 6:33.3 19:39.9
62 Aycock, Samuel 0 All Saints Episcopal - Lubbock 6:33.9 19:41.6 54
63 Fernandez, Isaiah 0 O'Donnell 6:34.2 19:42.6 55
64 Higgins, Hayden 0 Southcrest Christian 6:35.1 19:45.3 56
65 Power, Cadence 0 New Home 6:36.2 19:48.4 57
66 Schueler, Craig 0 Abernathy 6:36.2 19:48.6 58
67 Briones, Christian 0 Tahoka 6:36.3 19:48.7 59
68 Medrano, RJ 0 Ropesville Ropes 6:36.3 19:48.8 60
69 Mendez, Alexis 0 Levelland 6:36.8 19:50.2 61
70 Partington, Kutter 0 Ropesville Ropes 6:38.5 19:55.3 62
71 Craig, Spencer 0 Idalou 6:38.5 19:55.5 63
72 Childers, Zack 0 Crosbyton 6:38.9 19:56.7 64
73 Espinosa, David 0 Hale Center 6:39.2 19:57.5 65
74 Hernandez, Mateo 0 Seminole 6:39.5 19:58.4 66
75 Bagwell, Jason 0 Seminole 6:39.6 19:58.7 67
76 Maxwell, Jaxon 0 Denver City 6:41.0 20:02.9 68
77 Chavez, Enrique 0 Southcrest Christian 6:41.2 20:03.4
78 Bostwick, Corbin 0 Lubbock Titans 6:41.2 20:03.5
79 Curtis, Landon 0 Seminole 6:41.3 20:03.8 69
80 Doss, Nick 0 Crosbyton 6:42.1 20:06.2 70
81 Herrera, Joey 0 Tahoka 6:42.2 20:06.5 72
81 Henderson, Kolter 0 Farwell 6:42.2 20:06.5 71
83 Pesina, A.J. 0 Crosbyton 6:42.3 20:06.8 73
84 Flores, George 0 Abernathy 6:44.6 20:13.7 74
85 Ureste, Brandon 0 Abernathy 6:44.8 20:14.4 75
86 Jackson, Austin 0 Lubbock Christian 6:44.9 20:14.5 76
87 Blizel, Zach 0 New Home 6:45.2 20:15.5 77
88 Caffey, Logan 0 All Saints Episcopal - Lubbock 6:45.6 20:16.7 78
89 Paone, Vincent 0 All Saints Episcopal - Lubbock 6:45.9 20:17.5 79
90 Gomez, Noah 0 Seminole 6:46.0 20:17.9 80
91 Carrillo, Zachariah 0 Christ The King Cathedral 6:46.1 20:18.1 81
92 Pruitt, Eli 0 Lubbock Christian 6:46.2 20:18.5 82
93 Kantar, Bijan 0 Seminole 6:49.5 20:28.4 83
94 Moore, Jordan 0 New Home 6:50.0 20:30.0 84
95 Marin, Matthew 0 Plains 6:51.9 20:35.5 85
96 Martinez, Dylan 0 New Home 6:52.9 20:38.5 86
97 Maxwell, Tate 0 Denver City 6:52.9 20:38.7 87
98 Hall, Gavin 0 Clarendon MS 6:53.1 20:39.1
99 Guerrero, Eric 0 Crosbyton 6:53.2 20:39.6 88
100 Richardson, Gerrit 0 Lubbock Christian 6:53.7 20:40.9 89
101 Montanez, Adrian 0 Abernathy 6:53.9 20:41.6 90
102 Quintero, Julio 0 Denver City 6:54.4 20:43.2 91
103 Gonzalez, Ezequiel 0 Denver City 6:55.5 20:46.5 92
104 Whitaker, Sebastian 0 All Saints Episcopal - Lubbock 6:55.7 20:46.9 93
105 Solis, Michael 0 Slaton 6:55.9 20:47.7 94
106 Garcia, Xavier 0 Ralls 6:56.1 20:48.1
107 Cruz, Nathaniel 0 Denver City 6:59.8 20:59.3 95
108 Jasso, Mario 0 Plains 7:00.3 21:00.7 96
109 Jackson, Ned 0 Brownfield 7:00.6 21:01.8 97
110 Rodriguez, Jochi 0 O'Donnell 7:03.1 21:09.2 98
111 Wright, Trent 0 Slaton 7:03.3 21:09.7 99
112 Abney, Carter 0 New Home 7:03.9 21:11.7 100
113 Paston, Grant 0 Lubbock Christian 7:04.7 21:13.9 101
114 Zarita, Daniel 0 Denver City 7:04.9 21:14.6 102
115 Partington, Pake 0 Ropesville Ropes 7:05.4 21:16.0 103
116 Weedman, Daniel 0 Seminole 7:05.6 21:16.6
117 Fernandez, Jaython 0 Brownfield 7:06.2 21:18.5 104
118 Johnson, Blake 0 Hale Center 7:07.5 21:22.5 105
119 Small, Conlin 0 O'Donnell 7:07.7 21:23.0 106
120 Bingham, jed 0 Loop 7:07.9 21:23.5
121 Moreno, Lukas 0 Christ The King Cathedral 7:09.9 21:29.7 107
121 Arreola, Luis 0 Seminole 7:09.9 21:29.7
123 Resendez, Alex 0 O'Donnell 7:10.7 21:31.9 108
124 Preston, Keith 0 Southcrest Christian 7:11.1 21:33.1
125 Addison, Sam 0 Ropesville Ropes 7:11.2 21:33.4 109
126 Young, Ethan 0 Farwell 7:11.9 21:35.5 110
127 Walker, Cash 0 Ackerly Sands 7:12.4 21:37.0 111
128 Saldana, Andrew 0 Tahoka 7:12.6 21:37.8 112
129 McGlasson, Mathayus 0 Sundown 7:13.3 21:39.8
130 Branson, Adam 0 Lubbock Christian 7:13.8 21:41.2 113
131 Harwood, Conner 0 Lubbock Christian 7:14.6 21:43.6 114
132 Kitten, Elliot 0 Lubbock Christian 7:16.2 21:48.6
133 Torres, Sunny 0 New Home 7:17.2 21:51.6 115
134 Pena, Zane 0 Lubbock Christian 7:17.4 21:52.1
135 Rubacava, Damian 0 Levelland 7:19.8 21:59.3 116
136 Toney, Zach 0 Southcrest Christian 7:21.8 22:05.4
137 Betts, Joey 0 Southcrest Christian 7:22.1 22:06.2
138 Morrow, Landon 0 Ackerly Sands 7:24.6 22:13.7 117
139 Martinez, Alec 0 Denver City 7:25.2 22:15.6
140 Franco, Michael 0 Denver City 7:25.3 22:15.9
141 Renteria, Juan 0 O'Donnell 7:25.9 22:17.6 118
142 Pigg, Jodee 0 Clarendon MS 7:26.3 22:18.7
143 Arreola, Miguel 0 Seminole 7:27.1 22:21.2
144 Guttierez, Mario 0 Denver City 7:30.6 22:31.7
145 Resendez, Mark 0 O'Donnell 7:31.0 22:32.8 119
146 Garza, Patrick 0 Levelland 7:31.5 22:34.5 120
147 Wanjura, Ben 0 Christ The King Cathedral 7:31.6 22:34.8 121
148 Castanon, Oscar 0 Wilson 7:33.5 22:40.3
149 Martinez, Caleb 0 Brownfield 7:36.5 22:49.3 122
150 Galvan, Aldo 0 Farwell 7:37.1 22:51.1 123
151 Savage, Braxton 0 Southcrest Christian 7:37.4 22:52.0
152 Dzul, Daniel 0 Farwell 7:37.7 22:53.0 124
153 Paone, Anthony 0 All Saints Episcopal - Lubbock 7:38.4 22:55.1
154 Henry, Chris 0 Lubbock Christian 7:40.3 23:00.9
155 Njenga, Raphael 0 Ralls 7:40.4 23:01.0
156 Pacheco, Darron 0 Denver City 7:40.9 23:02.5
157 Rojas, Eric 0 Lubbock Estacado 7:41.8 23:05.2
158 Chriestenson, Cal 0 Southcrest Christian 7:42.6 23:07.6
159 Hernandez, Patrick 0 Christ The King Cathedral 7:43.5 23:10.3 125
160 Herrera, Israel 0 Slaton 7:43.6 23:10.7 126
161 Alvidrez, Derek 0 Hale Center 7:43.6 23:10.8 127
162 Garcia, Presley 0 Southcrest Christian 7:51.0 23:33.0
163 Wisneiwski, Avery 0 All Saints Episcopal - Lubbock 7:51.4 23:34.2
164 Chavira, Manuel 0 O'Donnell 7:52.8 23:38.4 128
165 Low, Garrett 0 Loop 7:53.6 23:40.7
166 Marshall, Michael 0 Crosbyton 7:56.7 23:50.0
167 Cochran, Kolby 0 Ropesville Ropes 7:58.5 23:55.5 129
168 Jacobus, Jake 0 Southcrest Christian 8:07.9 24:23.6
169 Juarez, Ruben 0 O'Donnell 8:11.0 24:32.8
170 Holland, Bret 0 Ropesville Ropes 8:11.4 24:34.2 130
171 Tew, Alex 0 Tahoka 8:11.9 24:35.7 131
172 Baker, Bo 0 Lubbock Christian 8:21.3 25:03.7
173 Aguilar, Marcus 0 Seminole 8:21.9 25:05.7
174 Quintania, Alex 0 Plains 8:22.3 25:06.8 132
175 Means, Baylor 0 Southcrest Christian 8:23.1 25:09.3
176 Lindsey, Steven 0 Lubbock Christian 8:23.2 25:09.6
177 Duran, Francisco 0 Abernathy 8:25.2 25:15.5 133
178 Perez, David 0 Tahoka 8:29.8 25:29.4 134
179 Wood, Brenner 0 Southcrest Christian 8:30.5 25:31.4
180 Galvan, Kanton 0 Denver City 8:31.5 25:34.3
181 King, Kaleb 0 Ackerly Sands 8:34.9 25:44.6 135
182 Dias, Ezekial 0 Plains 8:48.6 26:25.6 136
183 Castillo, Alex 0 Ropesville Ropes 8:49.5 26:28.3
184 Smithson, Whit 0 New Home 8:55.3 26:45.8
185 Herrera, Juan 0 Denver City 9:13.7 27:40.9
185 Williams, Tanner 0 Denver City 9:13.7 27:40.9
187 Quintero, Dylan 0 Tahoka 9:14.9 27:44.5 137
188 Madison, Kai 0 Denver City 9:17.1 27:51.2
189 Hudson, Ben 0 Lubbock Christian 9:17.7 27:53.0
190 Santos, Brandon 0 Clarendon MS 9:44.6 29:13.7
191 Hernandez, Anthony 0 Wilson 9:55.4 29:46.2
192 Moreno, Eljiio 0 Lamesa 10:06.3 30:18.9
193 Valdez, Isiah 0 Wilson 10:37.8 31:53.4
Girls 2 Mile Run CC Junior High Team Scores
Rank Team name Total Time Avg. Time Score 1 2 3 4 5 6 7
1 Abernathy MS 4:11:22 16:45 87 6 15 17 24 25 29 51
2 Farwell 5:59:10 17:06 93 4 12 18 23 36 38 48
3 Sundown 2:06:36 15:49 112 9 11 22 31 39 40 68
4 Hale Center Jr High 2:52:14 17:13 132 2 7 33 37 53 75 86
5 Seminole 2:07:12 15:54 136 5 14 30 42 45 46 81
6 Lubbock Titans 1:34:25 15:44 152 20 21 26 35 50 71
7 Ralls 1:32:39 15:26 153 1 10 32 52 58 59
8 Tahoka 1:36:10 16:01 185 3 19 41 44 78 80
9 New Home 3:38:30 18:12 233 16 47 49 60 61 63 64
10 Levelland 2:38:40 17:37 271 13 54 62 66 76 77 82
11 Slaton Jr. High 1:40:54 16:49 280 28 43 56 70 83 84
12 Ropesville Ropes 1:44:26 17:24 294 27 34 72 74 87 90
13 Crosbyton 1:27:05 17:25 327 8 69 73 88 89
14 Denver City 2:27:32 21:04 375 55 65 67 93 95 96 98
15 O'Donnell 2:24:31 20:38 404 57 79 85 91 92 94 97
Girls 2 Mile Run CC Junior High Individual Results
Place Name Year Team Avg. Mile Time Score
1 Villegas, Brooklyn 0 Ralls 6:53.5 13:47.0 1
2 Lozano, Ruth 0 Brownfield 6:54.1 13:48.1
3 Espinosa, Mariyah 0 Hale Center Jr High 6:58.5 13:56.9 2
4 Deleon, Gabrielle 0 Tahoka 6:58.7 13:57.4 3
5 Olmos, Bryanna 0 Farwell 6:59.3 13:58.5 4
6 Hernandez, Gracie 0 Seminole 7:00.9 14:01.8 5
7 Plata, Bianca 0 Ackerly Sands 7:01.0 14:02.0
8 Ponce, Sierra 0 Abernathy MS 7:01.1 14:02.1 6
8 Juarez, Layla 0 Hale Center Jr High 7:01.1 14:02.1 7
10 Garza, Kiyah 0 Crosbyton 7:01.4 14:02.7 8
11 Navarro, Madison 0 Ralls 7:01.6 14:03.2 10
11 Peralta, Grace 0 Sundown 7:01.6 14:03.2 9
13 Urias, Natalie 0 Sundown 7:05.6 14:11.2 11
14 Actkinson, Piper 0 Farwell 7:13.5 14:26.9 12
15 Hill, Addysyn 0 Levelland 7:14.7 14:29.4 13
16 Key, Alyssa 0 Seminole 7:18.4 14:36.8 14
17 Rodriguez, Alazay 0 Abernathy MS 7:20.1 14:40.2 15
18 Barrera, Kiley 0 Plains 7:22.1 14:44.1
19 Garcia, Julie 0 New Home 7:23.4 14:46.7 16
20 Martinez, Marianna 0 Abernathy MS 7:23.8 14:47.6 17
21 Urbantke, Kadey 0 Farwell 7:25.0 14:49.9 18
22 Nesbit, Madison 0 Tahoka 7:32.0 15:04.0 19
23 Stevens, Elle 0 Lubbock Titans 7:32.2 15:04.3 20
24 Segundo, Madison 0 Ackerly Sands 7:32.8 15:05.5
25 Flores, Roxie 0 Lubbock Titans 7:32.9 15:05.8 21
26 Ybarra, Francis 0 Sundown 7:34.8 15:09.5 22
27 Benoit, Zavayia 0 Farwell 7:35.3 15:10.6 23
28 Bender, Clara 0 Abernathy MS 7:37.4 15:14.8 24
29 Shadden, Scarlett 0 Abernathy MS 7:40.7 15:21.3 25
30 Corelis, Saylor 0 Lubbock Titans 7:42.3 15:24.6 26
31 Latta, Campbell 0 Ropesville Ropes 7:42.6 15:25.2 27
32 Castillo, Kathryn 0 Slaton Jr. High 7:42.8 15:25.6 28
33 Lopez, Olivia 0 Abernathy MS 7:43.2 15:26.4 29
34 Valdez, Genesis 0 Seminole 7:43.4 15:26.8 30
35 Garcia, Taylor 0 Sundown 7:43.5 15:27.0 31
36 Doolittle, Sofie 0 Ralls 7:44.6 15:29.2 32
37 Calderon, Mia 0 Hale Center Jr High 7:45.6 15:31.2 33
38 Rhoads, Kati 0 Ropesville Ropes 7:46.3 15:32.6 34
39 Whitworth, Aubrey 0 Lubbock Titans 7:47.2 15:34.3 35
40 Terry, Maryn 0 Farwell 7:47.2 15:34.4 36
41 Mata, Keyaira 0 Hale Center Jr High 7:47.6 15:35.2 37
42 Woods, Kirkland 0 Farwell 7:47.9 15:35.7 38
43 Riley, Karlee 0 Sundown 7:48.4 15:36.8 39
44 Lopez, Enyssa 0 Sundown 7:48.5 15:37.0 40
44 Vasquez, Abcde 0 Plains 7:48.5 15:37.0
46 Harris, Brooklyn 0 Tahoka 7:50.1 15:40.1 41
47 Johnson, Melanie 0 Seminole 7:50.5 15:40.9 42
48 Zapata, Leticia 0 Slaton Jr. High 7:50.9 15:41.8 43
49 Cantu, Mari 0 New Deal 7:52.1 15:44.1
50 Deleon, Miranda 0 Tahoka 7:52.7 15:45.3 44
51 Galvan, Delilah 0 Seminole 7:53.0 15:46.0 45
52 Parkey, Isabella 0 Seminole 7:54.1 15:48.1 46
53 Franco, Keely 0 New Home 7:55.8 15:51.5 47
54 Trimble, Charlie May 0 Farwell 8:00.7 16:01.3 48
55 McWhirter, Kristen 0 New Home 8:00.9 16:01.7 49
56 Bostwick, Kenzi 0 Lubbock Titans 8:01.1 16:02.2 50
57 Rose, Haija 0 Farwell 8:02.1 16:04.1
58 Sedillo, Loreyna 0 Abernathy MS 8:02.4 16:04.8 51
59 White, Emily 0 All Saints Episcopal - Lubbock 8:02.6 16:05.2
60 Yocom, Cadence 0 Ralls 8:02.8 16:05.6 52
61 Sandoval, Kameron 0 Abernathy MS 8:03.3 16:06.6
62 Ortega, Yahaira 0 Hale Center Jr High 8:04.6 16:09.1 53
63 Marquez, Heidi 0 Levelland 8:06.7 16:13.3 54
64 Barrientos, Izabella 0 Denver City 8:08.6 16:17.2 55
65 Rodriguez, Faith 0 Southcrest Christian 8:11.1 16:22.2
66 Chavarin, Kristen 0 Slaton Jr. High 8:12.4 16:24.8 56
67 Resendez, Cami 0 O'Donnell 8:13.1 16:26.1 57
68 Villa, Jocelyn 0 Farwell 8:14.4 16:28.7
69 Salazar, Illiana 0 Ralls 8:18.4 16:36.8 58
70 Alcala, Mikeala 0 Ralls 8:18.9 16:37.8 59
71 Webb, Maddisyn 0 New Deal 8:21.2 16:42.4
72 Schwertner, Elizabeth 0 Farwell 8:22.2 16:44.4
73 Lane, Carolyn 0 New Home 8:22.9 16:45.8 60
74 Baccus, Kelby 0 New Home 8:26.3 16:52.5 61
75 Corrales, Kaydence 0 Levelland 8:26.9 16:53.8 62
76 Nickels, Jayci 0 Farwell 8:27.5 16:54.9
76 Stewart, Addie 0 New Home 8:27.5 16:54.9 63
78 Chism, Gentry 0 Abernathy MS 8:29.0 16:58.0
79 Placensia, Gabby 0 Farwell 8:29.7 16:59.4
80 Addison, Morgan 0 New Home 8:29.8 16:59.5 64
81 Escalante, Samantha 0 Denver City 8:30.0 17:00.0 65
82 Hernandez, Makayla 0 Levelland 8:34.3 17:08.5 66
83 Murietta, Milka 0 Denver City 8:34.4 17:08.8 67
84 Lopez, Scarlett 0 Sundown 8:34.5 17:09.0 68
85 Mahuron, Kiarah 0 Crosbyton 8:36.0 17:11.9 69
86 Loera, Jaclyn 0 Slaton Jr. High 8:36.3 17:12.5 70
87 Winn, Jillian 0 Lubbock Titans 8:37.3 17:14.5 71
88 Falls, Ava 0 Ropesville Ropes 8:40.7 17:21.3 72
89 Smith, Jaelyn 0 Farwell 8:41.7 17:23.4
90 Castillo, Jackie 0 Crosbyton 8:43.1 17:26.2 73
91 Ramos, Khloe 0 Abernathy MS 8:47.4 17:34.8
92 Scott, Hadyn 0 New Home 8:47.9 17:35.8
93 Rodriguez, Kandis 0 Ropesville Ropes 8:48.6 17:37.1 74
94 Zamudio, Jocelyn 0 Hale Center Jr High 8:49.2 17:38.4 75
95 Avitia, Lilyana 0 Levelland 8:49.7 17:39.3 76
96 Olmos, Yulissa 0 Farwell 8:50.7 17:41.4
97 Ruiz, Marleah 0 Levelland 8:53.0 17:46.0 77
98 Bennett, Ali 0 Farwell 8:53.7 17:47.3
99 Garvin, Zoie 0 Tahoka 8:55.2 17:50.4 78
100 Lara, Sada 0 O'Donnell 8:55.6 17:51.1 79
101 Perez, Marisol 0 Tahoka 8:56.4 17:52.8 80
102 McClellen, Lexi 0 Farwell 8:56.5 17:53.0
103 Romero, Yasmyn 0 New Home 8:57.3 17:54.5
104 DeAnda, Isabel 0 Abernathy MS 8:57.3 17:54.6
105 Dominguez, Tania 0 Seminole 8:57.6 17:55.1 81
106 Gay, Makaia 0 Levelland 8:58.5 17:57.0 82
107 Cardona, Yeneli 0 Seminole 8:58.7 17:57.3
108 Walker, Kaylee 0 New Home 8:59.1 17:58.2
109 Brown, Libby 0 Slaton Jr. High 9:02.2 18:04.4 83
110 Alford, Presley 0 Slaton Jr. High 9:02.8 18:05.6 84
111 Roye, Morgan 0 O'Donnell 9:03.9 18:07.8 85
112 Howe, Camryn 0 All Saints Episcopal - Lubbock 9:04.4 18:08.8
113 Morin, Ayden 0 Abernathy MS 9:05.3 18:10.6
114 Garcia, Alejandra 0 Farwell 9:06.3 18:12.5
115 Guerra, MacKenzey 0 Levelland 9:08.3 18:16.5
116 Baca, Chloe 0 Hale Center Jr High 9:21.9 18:43.7 86
117 Martin, Malaya 0 Hale Center Jr High 9:28.0 18:55.9
118 Allamon, Myka 0 Abernathy MS 9:29.9 18:59.8
119 DuBose, Kodi 0 Abernathy MS 9:30.4 19:00.8
120 Melton, Tatum 0 Ropesville Ropes 9:34.6 19:09.2 87
121 Marquez, Thalia 0 Crosbyton 9:36.0 19:12.0 88
122 Aguayo, Arianna 0 Crosbyton 9:36.1 19:12.2 89
123 Bradley, Deavyn 0 Farwell 9:36.6 19:13.1
124 Becton, Trista 0 Ropesville Ropes 9:40.7 19:21.3 90
125 Hernandez, Hannah 0 O'Donnell 9:41.0 19:22.0 91
126 Posadas, Jaden 0 Sundown 9:41.3 19:22.6
127 Sharif, Teema 0 All Saints Episcopal - Lubbock 9:45.0 19:29.9
128 Shearer, Emma 0 Farwell 9:46.0 19:31.9
129 Espinosa, Lorena 0 Hale Center Jr High 9:46.4 19:32.8
130 Scarborough, Madisyn 0 New Home 9:48.4 19:36.7
131 Valles, Aubrey 0 Plains 9:55.6 19:51.2
132 Franco, Sherlin 0 Farwell 10:22.1 20:44.1
133 Cortez, Ashlyn 0 Abernathy MS 10:30.0 20:59.9
134 Sumners, Savannah 0 Loop 10:35.7 21:11.4
135 Chavez, Izzy 0 Southcrest Christian 10:42.2 21:24.3
136 Posadas, Isable 0 Plains 10:52.8 21:45.6
137 Perez, Angel 0 O'Donnell 10:53.0 21:45.9 92
138 Richards, Katie 0 Brownfield 10:57.1 21:54.2
139 Lawrence, Landri 0 Farwell 10:57.6 21:55.2
140 Isom, Candalee 0 Hale Center Jr High 11:04.4 22:08.7
141 Farrell, Emaliegh 0 Denver City 11:04.9 22:09.8 93
142 Valderas, Alanis 0 Levelland 11:08.6 22:17.1
143 Nichols, Susie 0 O'Donnell 11:28.4 22:56.8 94
144 Carmona, Janeli 0 Denver City 11:33.7 23:07.3 95
145 Durham, Caitlynn 0 Denver City 11:38.7 23:17.4 96
146 Rickman, Kamryn 0 O'Donnell 14:00.7 28:01.3 97
147 Mendoza, Beatriz 0 Denver City 14:16.0 28:32.0 98
148 Melton, Allison 0 New Home 15:36.1 31:12.2
Girls 2 Mile Run CC Hgh School Team Scores
Rank Team name Total Time Avg. Time Score 1 2 3 4 5 6 7
1 Sundown 4:23:45 14:39 59 6 8 10 16 19 20 26
2 Abernathy 5:30:42 15:01 77 3 9 14 22 29 30 34
3 Levelland 4:44:50 15:49 120 11 13 15 38 43 46 52
4 Seminole 2:17:51 15:19 126 1 21 27 33 44 57 88
5 Slaton 3:36:00 15:25 159 5 25 36 40 53 54 66
6 Denver City 2:24:40 16:04 166 2 17 37 45 65 96 111
7 Ackerly Sands 2:23:04 15:53 181 4 12 31 51 83 99 108
8 Crosbyton 4:09:15 16:37 216 28 32 39 56 61 72 74
9 Lubbock Christian 1:52:54 16:07 321 18 23 87 95 98 101 110
10 Ralls 1:41:13 16:52 321 24 41 67 89 100 118
11 Ropesville Ropes 1:34:26 15:44 325 7 62 81 84 91 92
12 Tahoka 2:09:06 16:08 329 50 55 70 75 79 86 93
13 Hale Center 1:17:58 15:35 339 35 63 71 73 97
14 New Deal 1:18:32 15:42 345 48 49 64 78 106
15 New Home 2:36:55 17:26 363 42 68 77 82 94 103 104
16 Farwell 2:48:00 16:48 380 59 60 69 90 102 105 107
17 O'Donnell 2:23:01 17:52 406 47 58 80 109 112 114 116
18 Cotton Center 1:32:44 18:32 506 76 85 113 115 117
Girls 2 Mile Run CC Hgh School Individual Results
Place Name Year Team Avg. Mile Time Score
1 Merrell, Madelyn 0 Idalou 6:14.2 12:28.3
2 Davis, Hailey 0 Seminole 6:25.1 12:50.2 1
3 Key, Gracen 0 Wellman-Union 6:25.4 12:50.8
4 Valenzuela, Katelynn 0 Denver City 6:26.5 12:52.9 2
5 Delgado, Skylar 0 Abernathy 6:28.3 12:56.6 3
6 Morrow, Landry 0 Ackerly Sands 6:29.7 12:59.3 4
7 Parker, Mary Jo 0 Slaton 6:33.3 13:06.5 5
8 Peralta, Ashlyn 0 Sundown 6:34.9 13:09.7 6
9 Trull, Chloe 0 Ropesville Ropes 6:38.2 13:16.3 7
10 McGlasson, Alyzah 0 Sundown 6:39.3 13:18.6 8
11 Moore, Raylee 0 Abernathy 6:42.8 13:25.6 9
12 Kenley, Rebecca 0 Sundown 6:43.2 13:26.3 10
13 Orozco, Sydnei 0 Levelland 6:43.7 13:27.4 11
14 Gonzalez, Me-A 0 Ackerly Sands 6:43.9 13:27.8 12
15 Castillo, Erika 0 Levelland 6:47.2 13:34.4 13
16 Harris, Avery 0 Abernathy 6:47.8 13:35.6 14
17 Ruiz, McKenna 0 Levelland 6:48.2 13:36.4 15
18 Garza, Karigen 0 Sundown 6:51.9 13:43.8 16
19 Aritza, Maria 0 Denver City 6:54.3 13:48.5 17
20 Lee, Sophie 0 Lubbock Christian 6:55.1 13:50.2 18
21 Rodriguez, Myranda 0 Sundown 6:55.5 13:50.9 19
22 Rodriguez, Alexa 0 Sundown 6:55.5 13:51.0 20
23 Allain, Rani 0 Seminole 6:55.6 13:51.1 21
24 Rodriguez, Anaya 0 Abernathy 6:55.7 13:51.3 22
25 Jimenez, Kaylnn 0 Lubbock Christian 6:56.8 13:53.5 23
26 Sotelo, Angel 0 Ralls 6:58.0 13:55.9 24
27 Cogburn, Alice 0 Slaton 6:58.2 13:56.4 25
28 Locklin, Sarah 0 Sundown 6:58.4 13:56.7 26
29 Schmitt, Amber 0 Seminole 7:00.0 13:59.9 27
30 Garza, Aniya 0 Crosbyton 7:00.5 14:01.0 28
31 Martinez, Mayra 0 Abernathy 7:02.2 14:04.3 29
32 Lutrick, Ashlyn 0 Abernathy 7:02.8 14:05.5 30
33 Porras, Lili 0 Ackerly Sands 7:03.2 14:06.3 31
34 Coleman, N'Kyra 0 Crosbyton 7:03.5 14:06.9 32
35 Griffiths, Jade 0 Wellman-Union 7:03.6 14:07.2
36 Contreras, Azalia 0 Seminole 7:04.1 14:08.2 33
37 Nunez, Azmariah 0 Abernathy 7:04.2 14:08.4 34
38 Akers, Wrye 0 Abernathy 7:04.7 14:09.4
39 Garza, Kadince 0 Sundown 7:05.4 14:10.8
40 Raman, Ariel 0 Hale Center 7:06.8 14:13.5 35
41 Howard, Raeley 0 Plains 7:08.5 14:16.9
42 Peralta, Gabby 0 Sundown 7:09.1 14:18.1
43 Martinez, Arianna 0 Abernathy 7:09.7 14:19.3
44 Rodriguez, Nina 0 Southcrest Christian 7:10.4 14:20.8
45 Cortez, Geneva 0 Sundown 7:10.9 14:21.7
46 Posadas, Jasmin 0 Sundown 7:11.1 14:22.2
47 Ayers, Hannah 0 Abernathy 7:12.8 14:25.5
48 Chambers, Chanie 0 Abernathy 7:13.3 14:26.6
49 Zapata, Aryanna 0 Slaton 7:14.7 14:29.4 36
50 Keinast, Kaitlyn 0 Idalou 7:15.1 14:30.1
51 Valenzuela, Kaycee 0 Denver City 7:16.0 14:31.9 37
52 Castellano, Hailey 0 Levelland 7:16.7 14:33.3 38
53 Marquez, Kandi 0 Crosbyton 7:17.0 14:33.9 39
54 Perry, Jes'Lyn 0 Brownfield 7:17.0 14:34.0
54 Corelis, Kyden 0 Lubbock Titans 7:17.0 14:34.0
56 Jackson, Jazmyn 0 Slaton 7:18.7 14:37.3 40
57 Castro, Melanie 0 Ralls 7:18.8 14:37.6 41
58 Meunier, Regan 0 New Home 7:18.9 14:37.8 42
59 Velardez, Natalie 0 Levelland 7:19.6 14:39.2 43
59 Trevino, Layla 0 Seminole 7:19.6 14:39.2 44
61 Torres, Adamari 0 Denver City 7:20.2 14:40.4 45
62 Whittle, Alayna 0 Idalou 7:21.4 14:42.7
63 Whipple, Kaitlynn 0 Levelland 7:21.9 14:43.7 46
64 Franco, Miranda 0 Sundown 7:22.9 14:45.7
65 Cortez, Alexandra 0 Abernathy 7:23.6 14:47.1
66 Sumners, Maddye 0 O'Donnell 7:23.7 14:47.4 47
67 Campos, Bianca 0 New Deal 7:24.0 14:48.0 48
68 Torres, Araceli 0 New Deal 7:25.0 14:49.9 49
69 Carrasco, Nadalie 0 Tahoka 7:26.6 14:53.2 50
70 Gonzalez, Alexis 0 Ackerly Sands 7:26.7 14:53.3 51
71 Mendoza, Saidee 0 Levelland 7:27.7 14:55.4 52
72 Quintanilla, Ryann 0 Sundown 7:28.1 14:56.1
72 Corelis, Brylie 0 Lubbock Titans 7:28.1 14:56.1
74 Cisneros, Jaylin 0 Levelland 7:28.7 14:57.4
75 Soto, Natali 0 Slaton 7:31.0 15:02.0 53
76 Stroupe, Tamya 0 Tahoka 7:31.5 15:03.0 55
76 Parker, Grace 0 Slaton 7:31.5 15:03.0 54
78 Garcia, Bianca 0 Crosbyton 7:32.6 15:05.2 56
79 Villalva, Amanda 0 Seminole 7:32.8 15:05.6 57
80 Gloria, Zaelan 0 O'Donnell 7:32.9 15:05.8 58
81 Kasel, Kerrigan 0 Farwell 7:33.0 15:05.9 59
82 Castellanos, Crystal 0 Levelland 7:34.4 15:08.7
83 Posadas, Penelope 0 Plains 7:34.7 15:09.3
84 Barnes, Karson 0 Farwell 7:36.5 15:12.9 60
85 Diaz, Hannah 0 Crosbyton 7:37.5 15:15.0 61
86 Madden, Cameron 0 Abernathy 7:39.1 15:18.2
87 Valenzuela, Shae 0 Brownfield 7:39.2 15:18.3
88 Langston, Amari 0 Lubbock Estacado 7:39.9 15:19.7
89 Belyeu, Brooklyn 0 Ropesville Ropes 7:41.8 15:23.5 62
90 Silvas, Ally 0 Hale Center 7:42.8 15:25.5 63
91 Blake, Harley 0 New Deal 7:43.7 15:27.3 64
92 Orona, Alexis 0 Denver City 7:44.6 15:29.2 65
93 Coronado, Zandy 0 Slaton 7:44.7 15:29.4 66
94 Phy, Sara 0 All Saints Episcopal - Lubbock 7:45.1 15:30.1
95 Lara, Samantha 0 Ralls 7:45.1 15:30.2 67
96 Lopez, Sabri 0 Slaton 7:46.4 15:32.7
97 Russell, Alyssa 0 Sundown 7:47.1 15:34.2
98 Parker, Hannah 0 Littlefield 7:47.5 15:35.0
99 Cathey, Jacey 0 New Home 7:49.1 15:38.2 68
100 White, Katey 0 Farwell 7:50.1 15:40.1 69
101 Coronado, Kristen 0 Tahoka 7:50.2 15:40.4 70
102 Vandygriff, Kylie 0 Abernathy 7:50.4 15:40.7
103 Valdez, Rosemary 0 Hale Center 7:50.7 15:41.4 71
104 Miller, Vanessa 0 Abernathy 7:51.0 15:41.9
105 Bordayo, Brytnee 0 Levelland 7:51.2 15:42.4
106 Fanelli, Madison 0 Crosbyton 7:51.6 15:43.2 72
107 Trevino, Alexandria 0 Abernathy 7:51.7 15:43.4
108 Aleman, Avery 0 Hale Center 7:52.0 15:44.0 73
109 Baeza, Sarahi 0 Levelland 7:54.7 15:49.3
110 Orosco, Hope 0 Littlefield 7:56.3 15:52.5
111 Campos, Marisol 0 Sundown 7:56.3 15:52.6
112 Vega, Heavenly 0 Crosbyton 7:57.1 15:54.1 74
113 Chambers, Charlee 0 Abernathy 7:58.5 15:56.9
114 Broun, Molly 0 Tahoka 7:59.5 15:58.9 75
115 Stambaugh, Jenna 0 Cotton Center 7:59.9 15:59.8 76
116 Guerrero, Thalia 0 Crosbyton 8:00.2 16:00.4
117 Garcia, Leeya 0 New Home 8:00.6 16:01.2 77
118 Tienda, Erin 0 Levelland 8:01.1 16:02.2
119 Ortiz, Genesis 0 Slaton 8:01.7 16:03.4
120 Anzley, Christana 0 Slaton 8:01.8 16:03.5
121 Randolph, Kim 0 New Deal 8:02.9 16:05.7 78
122 Tew, Amy 0 Tahoka 8:03.8 16:07.5 79
123 Renteria, Juanita 0 O'Donnell 8:04.0 16:08.0 80
124 Pierce, Chloe 0 Lamesa 8:04.4 16:08.7
125 Casebolt, Corrie 0 Lubbock Titans 8:05.4 16:10.7
126 Luning, Sara 0 Ropesville Ropes 8:05.8 16:11.6 81
127 Boynton, Saleh 0 New Home 8:06.6 16:13.2 82
128 King, Gracie 0 Ackerly Sands 8:08.5 16:16.9 83
129 Ellibee, McKenna 0 Ropesville Ropes 8:08.6 16:17.1 84
130 Rexrode, Kyrstn 0 Abernathy 8:08.7 16:17.3
131 Burnett, Darcie 0 Cotton Center 8:09.8 16:19.6 85
132 Elizondo, Alyssa 0 Tahoka 8:09.9 16:19.8 86
133 Phillips, Haley 0 Abernathy 8:10.5 16:20.9
134 Horn, Rylee 0 Lubbock Christian 8:11.7 16:23.4 87
135 Young, Ti'Alice 0 Slaton 8:12.4 16:24.8
136 Zapata, Bethany 0 Slaton 8:13.0 16:25.9
137 Lozano, Maylin 0 Plains 8:13.7 16:27.3
138 Solis, Daniella 0 Littlefield 8:14.8 16:29.6
139 Derma, Esmerelda 0 Seminole 8:15.8 16:31.5 88
140 DeLaSantos, Kate 0 Sundown 8:15.9 16:31.7
141 Cox, LynZee 0 Levelland 8:16.5 16:32.9
142 Rodriguez, Ariel 0 Ralls 8:16.7 16:33.4 89
143 Grahn, Darcy 0 Clarendon MS 8:17.5 16:35.0
144 Coburn, Kynlee 0 Farwell 8:17.6 16:35.2 90
145 Richardson, Bethany 0 Ropesville Ropes 8:19.3 16:38.5 91
146 Moore, Megan 0 Ropesville Ropes 8:19.6 16:39.1 92
147 Pina, April 0 Tahoka 8:19.6 16:39.2 93
148 Torrez, Karli 0 Sundown 8:20.3 16:40.6
149 Miller, Autumn 0 Abernathy 8:21.1 16:42.1
150 Johnston, McKenzie 0 New Home 8:21.4 16:42.8 94
150 Dalstrom, Liv 0 Lubbock Christian 8:21.4 16:42.8 95
152 Zapata, Justyne 0 Slaton 8:21.6 16:43.1
153 Villalobos, Rocio 0 Denver City 8:21.7 16:43.4 96
154 McWhirter, Brynne 0 Plains 8:25.6 16:51.1
155 Pena, Emily 0 Hale Center 8:27.0 16:54.0 97
156 Garza, Lucinda 0 Sundown 8:27.6 16:55.1
157 Sandoval, Carlye 0 Abernathy 8:28.0 16:56.0
158 Denning, Jade 0 Lubbock Christian 8:29.3 16:58.6 98
159 Gutierrez, Kiyah 0 Seminole 8:29.6 16:59.1
160 Diaz, Mayra 0 Ackerly Sands 8:30.6 17:01.1 99
161 Gatica, Samantha 0 Slaton 8:31.5 17:03.0
162 Faber, Lorna 0 Ralls 8:31.6 17:03.1 100
163 Dendy, Clara 0 Lubbock Christian 8:31.7 17:03.3 101
164 Lopez, Aleni 0 Levelland 8:33.5 17:06.9
165 Holmes, Brianna 0 Lamesa 8:33.9 17:07.8
166 Soto, Dianna 0 Farwell 8:36.6 17:13.2 102
167 Baldree, Avery 0 Southcrest Christian 8:37.4 17:14.7
168 McFadden, M'Kenna 0 New Home 8:38.1 17:16.2 103
169 Gill, Kyley 0 New Home 8:38.7 17:17.4 104
170 Chadwick, Bailey 0 Farwell 8:39.7 17:19.4 105
171 Trevino, Ariel 0 Lamesa 8:40.5 17:21.0
172 Booth JV, McKenna 0 New Deal 8:40.8 17:21.5 106
173 Actkinson, Ainsley 0 Farwell 8:41.4 17:22.7 107
174 Lane, Trista 0 Southcrest Christian 8:42.7 17:25.3
175 Reyna, Yesenia 0 Ackerly Sands 8:44.5 17:29.0 108
176 Riggins, Michaela 0 Lamesa 8:44.7 17:29.3
177 Valderas, Amber 0 Levelland 8:45.8 17:31.6
178 Williams, Erica 0 Farwell 8:47.4 17:34.7
179 Gutierrez, Ari 0 O'Donnell 8:47.8 17:35.5 109
180 Marquez, Marissa 0 Crosbyton 8:49.8 17:39.6
181 Dunn, Katie 0 Crosbyton 8:53.7 17:47.4
182 Moody, Ariyah 0 Lubbock Estacado 8:54.2 17:48.3
183 Rodriguez, Ashley 0 Abernathy 8:54.9 17:49.7
184 Young, Bethany 0 Farwell 8:58.6 17:57.1
185 Mancilla, Lauren 0 Brownfield 8:59.4 17:58.8
186 Vasquez, Brenda 0 Farwell 8:59.5 17:59.0
187 Brashear, Ellen 0 All Saints Episcopal - Lubbock 9:00.6 18:01.2
188 Waters, Cassidy 0 Lubbock Christian 9:01.5 18:03.0 110
189 Silva, Jackie 0 Denver City 9:01.6 18:03.1 111
190 Gonzales, Alexis 0 Crosbyton 9:02.0 18:03.9
191 Dye, Elizabeth 0 New Home 9:05.1 18:10.2
192 Sandlin, Lakyn 0 Ackerly Sands 9:08.0 18:15.9
193 Jones, Bailey 0 Littlefield 9:11.8 18:23.5
194 Ramirez, Tamara 0 Tahoka 9:12.1 18:24.2
195 Childers, Kyara 0 Levelland 9:12.8 18:25.5
196 Sanchez, Amber 0 Crosbyton 9:16.6 18:33.2
197 Plata, Alexa 0 Ackerly Sands 9:17.6 18:35.2
198 Waters, Macaela 0 Levelland 9:20.2 18:40.3
199 Fira, Averey 0 Crosbyton 9:20.9 18:41.8
200 Rodriguez, Avery 0 Crosbyton 9:22.8 18:45.6
201 Renteria, Emily 0 O'Donnell 9:22.9 18:45.7 112
202 Rodriguez, Azalia 0 Crosbyton 9:32.0 19:03.9
203 Pantoja, Leslie 0 Wilson 9:34.0 19:07.9
204 Esmerado, Denise 0 Denver City 9:34.0 19:08.0
205 Gonzales, Evelyn 0 Denver City 9:41.6 19:23.2
206 Galaviz, Yamilex 0 Levelland 9:41.8 19:23.5
207 Perez, Roxxie 0 Brownfield 9:44.6 19:29.1
208 Metzler, Ann 0 Cotton Center 9:46.8 19:33.5 113
209 Cox, Ashton 0 O'Donnell 9:48.0 19:36.0 114
210 Bumstead, Susanna 0 All Saints Episcopal - Lubbock 9:48.1 19:36.1
211 Safford, Christina 0 Cotton Center 9:49.4 19:38.8 115
212 Hagler, Kenna 0 O'Donnell 9:50.6 19:41.2 116
213 Reyes, Sky 0 Seminole 9:53.5 19:47.0
214 Winn, Annalise 0 Lubbock Titans 10:25.6 20:51.2
215 Flores, Vanessa 0 Cotton Center 10:36.5 21:13.0 117
216 Myers, Sterling 0 Southcrest Christian 10:36.6 21:13.1
217 Castillo, Jazlyn 0 O'Donnell 10:41.1 21:22.2
218 Byrd, Joley 0 Ralls 11:46.7 23:33.3 118
219 Williams, Mia 0 New Home 12:29.2 24:58.4
Boys 2 Mile Run CC Junior High Team Scores
Rank Team name Total Time Avg. Time Score 1 2 3 4 5 6 7
1 Ackerly Sands 1:43:05 14:43 84 5 6 18 25 30 78 100
2 Sundown 3:59:48 14:59 87 3 7 15 27 35 38 46
3 New Home 2:18:44 15:24 104 4 13 20 26 41 50 79
4 Denver City 1:58:30 14:48 125 2 16 32 36 39 75 91
5 Southcrest Christian 2:27:44 14:46 143 10 24 29 31 49 54 63
6 Seminole 2:26:51 14:41 149 8 14 34 45 48 55 64
7 All Saints Episcopal - Lubbock 3:02:42 15:13 149 1 11 40 44 53 68 72
8 Ralls 1:12:22 14:28 213 12 19 43 59 80
9 Abernathy MS 3:10:24 15:52 214 17 22 51 57 67 71 76
10 Slaton Jr. High 1:32:39 15:26 216 9 21 28 65 93 96
11 Christ the King 1:49:02 15:34 273 42 47 56 58 70 90 94
12 Levelland 1:35:27 15:54 326 37 61 69 74 85 97
13 Crosbyton 1:55:42 16:31 331 23 60 77 83 88 95 99
14 Clarendon MS 2:06:50 15:51 335 33 66 73 81 82 86 87
15 O'Donnell 1:39:14 16:32 379 52 62 84 89 92 98
Boys 2 Mile Run CC Junior High Individual Results
Place Name Year Team Avg. Mile Time Score
1 Taylor, Lee 0 All Saints Episcopal - Lubbock 5:39.4 11:18.8 1
2 Whitworth, Ryan 0 Lubbock Titans 6:04.7 12:09.4
3 Freeman, Spencer 0 Denver City 6:07.2 12:14.3 2
4 Torres, Koy 0 Sundown 6:09.1 12:18.1 3
5 Fiedler, Reagan 0 New Home 6:09.1 12:18.2 4
6 King, Samuel 0 Ackerly Sands 6:19.3 12:38.5 5
7 Juarez, Rodolfo 0 Ackerly Sands 6:19.7 12:39.4 6
8 McAdams, Elijah 0 Home School 6:26.6 12:53.2
9 Salgado, Mathias 0 Sundown 6:28.3 12:56.5 7
10 Elder, Landon 0 Seminole 6:33.1 13:06.2 8
11 Gonzales, Ishmal 0 Slaton Jr. High 6:36.1 13:12.1 9
12 Perry, Kasen 0 Southcrest Christian 6:37.3 13:14.6 10
13 Rushing, Luke 0 All Saints Episcopal - Lubbock 6:38.0 13:16.0 11
14 Reynoso, Ephram 0 Ralls 6:39.0 13:17.9 12
15 Beck, Brazos 0 New Home 6:42.0 13:23.9 13
16 Rodarte, Eduardo 0 Seminole 6:45.5 13:31.0 14
17 Boggs, Carson 0 Sundown 6:45.9 13:31.8 15
18 Franco, Anthony 0 Denver City 6:46.0 13:31.9 16
19 Zavala, Malachi 0 Abernathy MS 6:46.0 13:32.0 17
20 Diaz, Michael 0 Ackerly Sands 6:46.6 13:33.2 18
21 Salazar, Michael 0 Ralls 6:46.9 13:33.7 19
22 Martinez, Jackson 0 New Home 6:47.9 13:35.8 20
23 Rubio, Donovan 0 Slaton Jr. High 6:48.9 13:37.8 21
24 Davidson, Gage 0 Lubbock Christian 6:49.0 13:38.0
25 Blake, Dustin 0 New Deal 6:49.5 13:38.9
26 Delgado, Diego 0 Abernathy MS 6:49.9 13:39.7 22
27 Garza, Jaedon 0 Crosbyton 6:52.7 13:45.4 23
28 Delgado, Sawyer 0 Southcrest Christian 6:55.7 13:51.4 24
29 Archuleta, Austin 0 Ackerly Sands 6:56.1 13:52.2 25
30 Fowler, Bryson 0 New Home 6:57.2 13:54.4 26
31 Acevedo, Johnny 0 Sundown 6:57.5 13:54.9 27
32 Holland, Larr-E 0 Slaton Jr. High 6:57.7 13:55.3 28
33 Lane, Braden 0 Southcrest Christian 6:59.9 13:59.8 29
34 Gaskins, Wiley 0 Ackerly Sands 7:00.5 14:01.0 30
35 Simmons, Luke 0 Southcrest Christian 7:00.7 14:01.3 31
36 Barrientos, Alijah 0 Denver City 7:01.6 14:03.1 32
37 Mays, Davin 0 Clarendon MS 7:01.8 14:03.5 33
38 Reames, Landry 0 Seminole 7:01.9 14:03.7 34
39 DeLaCerda, David 0 Sundown 7:03.4 14:06.7 35
40 Maldonado, Kain 0 Levelland 7:04.7 14:09.3 37
40 Rosas, Marcos 0 Denver City 7:04.7 14:09.3 36
42 Wiebe, Bryce 0 Loop 7:05.1 14:10.1
43 Sanders, Branson 0 Sundown 7:05.1 14:10.2 38
44 Escalante, Jonah 0 Denver City 7:05.4 14:10.7 39
45 Geihsler, Grady 0 All Saints Episcopal - Lubbock 7:06.4 14:12.7 40
46 Carrillo, Dylan 0 New Home 7:06.8 14:13.6 41
47 Chaloupka, Aaron 0 Christ the King 7:10.4 14:20.7 42
48 Hernandez, Ivan 0 Ralls 7:13.8 14:27.5 43
49 Paone, Joseph 0 All Saints Episcopal - Lubbock 7:17.6 14:35.1 44
50 Rocha, Eric 0 Seminole 7:17.8 14:35.5 45
51 Peralez, Noah 0 Sundown 7:17.9 14:35.8 46
52 Ortiz, Aasiya 0 Christ the King 7:18.2 14:36.3 47
53 Tarango, Aiden 0 Hale Center Jr High 7:19.9 14:39.7
54 Jenkins, Brayden 0 Hale Center Jr High 7:20.7 14:41.4
55 Lapusan, Daniel 0 Seminole 7:21.4 14:42.8 48
56 Bradley, Matthew 0 Southcrest Christian 7:21.5 14:43.0 49
57 Bocanegra, Alex 0 Sundown 7:22.0 14:44.0
58 Boynton, Micah 0 New Home 7:22.5 14:44.9 50
59 Macias, Alan 0 Abernathy MS 7:22.7 14:45.4 51
60 Trevino, Caleb 0 O'Donnell 7:23.1 14:46.2 52
61 Cervera, Diego 0 All Saints Episcopal - Lubbock 7:23.3 14:46.5 53
62 Spann, Alex 0 Southcrest Christian 7:24.5 14:48.9 54
63 Morales, Joel 0 Brownfield 7:24.6 14:49.2
64 Fabila, Justin 0 Tahoka 7:25.3 14:50.5
65 Dickson, Gavin 0 Seminole 7:25.8 14:51.5 55
66 Buescher, Nicholas 0 Christ the King 7:26.1 14:52.1 56
67 Shadden, Brody 0 Abernathy MS 7:26.2 14:52.4 57
68 Castenada, John Paul 0 Christ the King 7:26.6 14:53.1 58
69 Espinoza, Marcus 0 Ralls 7:26.6 14:53.2 59
70 Wilson, Atreyu 0 Crosbyton 7:26.9 14:53.8 60
71 Lopez, R.J. 0 Levelland 7:27.2 14:54.4 61
72 Charvira, Alex 0 O'Donnell 7:28.3 14:56.6 62
73 Henderson, Sadler 0 Southcrest Christian 7:28.4 14:56.7 63
74 Chapa, Isaiah 0 Slaton Jr. High 7:28.8 14:57.6 65
74 Banman, Nathan 0 Seminole 7:28.8 14:57.6 64
76 Lummus, Alex 0 Sundown 7:29.3 14:58.5
77 Howard, Harrison 0 Clarendon MS 7:31.3 15:02.6 66
78 Stone, Matthew 0 Tahoka 7:31.6 15:03.1
79 Fisher, Austin 0 Abernathy MS 7:31.8 15:03.5 67
80 Mead, Caden 0 All Saints Episcopal - Lubbock 7:32.0 15:03.9 68
81 Friessen, Nathan 0 Seminole 7:36.5 15:13.0
82 Villegas, Erasmo 0 Levelland 7:36.8 15:13.5 69
83 Hart, Nicholas 0 Sundown 7:37.2 15:14.3
84 Bentancourt, Isaiah 0 Christ the King 7:38.0 15:16.0 70
85 Montoya, Jaime 0 Abernathy MS 7:39.0 15:17.9 71
86 Trevey, Jacob 0 New Deal 7:41.8 15:23.6
87 Profitt, Anson 0 All Saints Episcopal - Lubbock 7:42.2 15:24.3 72
87 McAnear, Jaxon 0 Clarendon MS 7:42.2 15:24.3 73
89 Arzate, Wilbert 0 Seminole 7:42.3 15:24.5
90 Flores, Isaiah 0 Sundown 7:42.9 15:25.8
90 Lane, Brendan 0 Southcrest Christian 7:42.9 15:25.8
92 Morris, Jayden 0 Farwell 7:43.0 15:26.0
93 Smith, Easton 0 Sundown 7:43.8 15:27.6
94 Davenport, Preston 0 Tahoka 7:44.6 15:29.1
95 Ellis, Austin 0 Levelland 7:46.1 15:32.2 74
96 Brown, Ethan 0 New Deal 7:47.1 15:34.1
97 Sotelo, Eleazor 0 Denver City 7:47.9 15:35.7 75
98 Zavala, Kylar 0 Abernathy MS 7:48.7 15:37.4 76
99 Vega, Richard 0 Crosbyton 7:52.6 15:45.1 77
100 Burns, Brooks 0 All Saints Episcopal - Lubbock 7:55.7 15:51.4
101 Evans, Watson 0 Sundown 7:55.9 15:51.8
102 Blevins, Thomas 0 All Saints Episcopal - Lubbock 7:56.0 15:52.0
103 Gaines, Jess 0 All Saints Episcopal - Lubbock 7:56.2 15:52.4
104 Morton, Brennan 0 Southcrest Christian 7:57.0 15:54.0
105 Porras, Jesus 0 Ackerly Sands 7:57.6 15:55.1 78
106 Evans, Trey 0 New Home 7:58.0 15:56.0 79
107 Manuel, Manuel 0 Hale Center 7:58.3 15:56.5
108 Stone, Markus 0 Abernathy MS 8:03.6 16:07.2
109 Sauceda, Manuel 0 Ralls 8:05.1 16:10.1 80
110 Cottrell, Britton 0 Clarendon MS 8:05.4 16:10.7 81
111 Balough, Bradin 0 Clarendon MS 8:08.1 16:16.2 82
112 Lorton, Kole 0 New Home 8:08.3 16:16.5
113 Doss, Dylan 0 Crosbyton 8:08.9 16:17.8 83
114 Avalos, xavier 0 Loop 8:10.1 16:20.2
115 Martens, Jacob 0 Seminole 8:12.8 16:25.5
116 Garces, Gage 0 O'Donnell 8:13.7 16:27.3 84
117 Lopez, Lizandro 0 Levelland 8:14.1 16:28.2 85
118 Mays, Warren 0 Clarendon MS 8:16.9 16:33.8 86
119 Dominguez, Maddox 0 Abernathy MS 8:17.9 16:35.7
120 Cottrell, Jace 0 Clarendon MS 8:18.2 16:36.3 87
121 Wade, Reagan 0 Clarendon MS 8:21.5 16:43.0
122 Gonzalez, Riley 0 Crosbyton 8:23.7 16:47.3 88
123 Vela, Omar 0 O'Donnell 8:24.2 16:48.3 89
124 Nall, Zachary 0 Southcrest Christian 8:24.6 16:49.2
125 Russell, Hunter 0 Sundown 8:28.5 16:57.0
126 Hanson- Swim, Colter 0 Christ the King 8:29.8 16:59.5 90
127 Gonzales, Gustavo 0 Denver City 8:30.6 17:01.2 91
128 Chavira, Jacob 0 O'Donnell 8:31.6 17:03.2 92
129 Romero, Diego 0 Sundown 8:35.1 17:10.1
130 Partington, Braxxin 0 Ropesville Ropes 8:37.4 17:14.8
131 Vanstory, Brayden 0 Abernathy MS 8:43.0 17:25.9
132 Aycock, Owen 0 All Saints Episcopal - Lubbock 8:43.4 17:26.7
133 Yanez, Nick 0 Denver City 8:52.1 17:44.2
134 Graham, Quincy 0 Slaton Jr. High 8:54.9 17:49.8 93
135 Hogan, Isaiah 0 Christ the King 9:02.6 18:05.1 94
136 Hart, Justin 0 Sundown 9:12.9 18:25.8
137 Miller, McClendon 0 Abernathy MS 9:20.0 18:40.0
138 Burgoin, Adrian 0 Plains 9:21.5 18:42.9
139 Scheuler, Samuel 0 Abernathy MS 9:23.6 18:47.1
140 Gonzalez, Jacob 0 Crosbyton 9:28.9 18:57.7 95
141 Janes, Jacob 0 All Saints Episcopal - Lubbock 9:31.2 19:02.4
142 Alford, Jax 0 Slaton Jr. High 9:33.4 19:06.7 96
143 Osburn, Donovan 0 Levelland 9:35.2 19:10.3 97
144 Hogan, Michael 0 O'Donnell 9:36.4 19:12.7 98
145 Marquez, Exavier 0 Crosbyton 9:37.6 19:15.1 99
146 Mendez, Zackery 0 Plains 9:38.0 19:15.9
147 Huffman, Kirby 0 Ackerly Sands 10:13.1 20:26.2 100
148 Munoz, Victor 0 Plains 11:14.4 22:28.8
149 Starkey, Ryne 0 New Home 12:10.4 24:20.8